Regional Weather Roundup
Issued by NWS Grand Forks, ND

Home | Current Version | Previous Version | Text Only | Print | Product List | Glossary On
Versions: 1 2 3 4 5 6 7 8 9 10 11 12 13 14 15 16 17 18 19 20 21 22 23 24 25 26 27 28 29 30 31 32 33 34 35 36 37 38 39 40 41 42 43 44 45 46 47 48 49 50
000
ASUS43 KFGF 252231
RWRFGF
PRAIRIE TO PINES  WEATHER ROUNDUP
NATIONAL WEATHER SERVICE EASTERN NORTH DAKOTA/GRAND FORKS ND
500 PM CDT SAT APR 25 2015

 **SATELLITE DATA USED TO AUGMENT SKY COVER AT AUTOMATED STATIONS**
 *****  WEATHER ACROSS EASTERN NORTH DAKOTA  *****

CITY           SKY/WX    TMP DP  RH WIND       PRES   REMARKS
GRAND FORKS    PTSUNNY   63  38  39 S12       29.87S
GRAND FRKS AFB CLOUDY    63  38  40 S14       29.88S
GRAND FRKS NWS   N/A     61 N/A N/A S9          N/A
DEVILS LAKE    CLOUDY    55  41  58 SE10      29.87R
FARGO          MOSUNNY   61  38  42 S9G20     29.88R
WAHPETON ARPT  MOCLDY    59  36  41 E8        29.88S
$$

 ***** WEATHER ACROSS CENTRAL AND WESTERN NORTH DAKOTA  *****

CITY           SKY/WX    TMP DP  RH WIND       PRES   REMARKS
BISMARCK       CLOUDY    50  42  74 SE12      29.83R
MINOT          CLOUDY    57  39  51 SE16      29.80S
JAMESTOWN      CLOUDY    49  40  71 SE12      29.87R
MINOT AFB      CLOUDY    58  43  58 SE15G23   29.79S
GARRISON         N/A     54  42  64 SE18      29.80R
WILLISTON      CLOUDY    57  43  59 SE15G25   29.73F
DICKINSON      CLOUDY    49  43  80 SE18      29.74F
HETTINGER      CLOUDY    48  44  86 SE15      29.77S
$$

 *****  OTHER AIRPORT OBSERVATIONS IN OUR AREA  *****

CITY           SKY/WX    TMP DP  RH WIND       PRES   REMARKS
WALHALLA       MOCLDY    63  37  39 S14       29.88S
GRAFTON AIRPOR MOCLDY    63  37  39 S17       29.88S
VALLEY CITY AR FAIR      54  45  71 S14G22    29.88S
CANDO          CLOUDY    55  39  54 SE15      29.88S
CAVALIER APRT  FAIR      64  36  34 SE10      29.88S
GWINNER        MOCLDY    55  43  62 SE12      29.89S
SHEYENNE NWR     N/A     56  39  52 S10       29.95
ROLLA          CLOUDY    54  37  54 S15G21    29.88S
 ***** THE ABOVE OBSERVATIONS ARE NON NWS ARE NOT QUALITY
       CONTROLLED AND MAY MIS-REPORT RAIN FOR SNOW...
$$

  *****  WEATHER ACROSS NORTHERN MINNESOTA  *****

CITY           SKY/WX    TMP DP  RH WIND       PRES   REMARKS
FLAG ISLAND    SUNNY     55  30  38 SE6       29.95S
WARROAD        SUNNY     54  34  47 NE15      29.95R
ROSEAU         SUNNY     61  30  31 E17       29.92S
HALLOCK        SUNNY     64  28  25 SE12G20   29.89R
THF RVR FALLS  SUNNY     61  34  36 E16       29.90S
BAUDETTE       SUNNY     59  28  30 E10       29.94S
WASKISH        SUNNY     63  34  34 NE8       29.92S
CROOKSTON      PTSUNNY   63  36  36 SE9       29.89R
$$
  *****  WEATHER ACROSS CENTRAL AND WEST MINNESOTA  *****

CITY           SKY/WX    TMP DP  RH WIND       PRES   REMARKS
FOSSTON        SUNNY     63  30  29 SE9       29.91R
BEMIDJI        SUNNY     57  30  35 E12       29.92R
PARK RAPIDS    SUNNY     59  26  28 SE10      29.89S
ELBOW LAKE     FAIR      56  41  55 E9        29.88R
WADENA         SUNNY     57  34  41 E13       29.89R
DETROIT LAKES  SUNNY     59  30  33 E12       29.90R
MOORHEAD       SUNNY     61  36  39 SE3       29.88S
FERGUS FALLS   MOSUNNY   59  34  38 SE9       29.89R
MORRIS MN      PTSUNNY   57  43  58 E10       29.86R
STAPLES        SUNNY     55  27  33 E8        29.90R
$$
  *****  WEATHER ELSEWHERE ACROSS MINNESOTA  *****

CITY           SKY/WX    TMP DP  RH WIND       PRES   REMARKS
DULUTH         MOSUNNY   47  15  27 E15       29.97R
INTRNTL FALLS  SUNNY     55  24  30 SE7       29.95F
ELY            SUNNY     54  14  20 S5        29.95S
CLOQUET        SUNNY     46  12  25 E13G21    29.97R
WHEATON        PTSUNNY   54  43  66 E12       29.89S
BRAINERD       MOSUNNY   56  26  31 NE14      29.91R
HIBBING        SUNNY     59  22  24 SE10G17   29.92S
ALEXANDRIA     MOSUNNY   56  39  53 E14       29.89R
SAINT CLOUD    SUNNY     59  30  33 E13G21    29.87R
MINNEAPOLIS    MOSUNNY   61  25  25 E14G20    29.84S
$$

  *****  WEATHER ACROSS SOUTH DAKOTA  *****

CITY           SKY/WX    TMP DP  RH WIND       PRES   REMARKS
SIOUX FALLS    PTSUNNY   61  42  49 E15       29.78R
BROOKINGS      CLOUDY    55  41  58 E13       29.83R
WATERTOWN      MOSUNNY   55  41  59 E13       29.83S
HURON          CLOUDY    60  44  55 SE13      29.79R
SISSETON         N/A     53  43  68 SE8       29.87R
ABERDEEN       CLOUDY    52  42  69 E12       29.85R
MITCHELL       PTSUNNY   60  47  61 E14       29.79R
PIERRE         CLOUDY    59  48  67 E13       29.76S
MOBRIDGE       CLOUDY    53  45  74 SE10      29.78S
RAPID CITY     CLOUDY    51  47  86 S10       29.73R
$$

  *****  SOME WEATHER IN NEARBY STATES *****

CITY           SKY/WX    TMP DP  RH WIND       PRES   REMARKS
GLASGOW MT     LGT RAIN  44  41  89 NW12      29.76S FOG
GREAT FALLS MT CLOUDY    54  24  31 N8        29.80S
CHEYENNE WY    LGT RAIN  49  38  65 W18G25    29.79R
SCOTTSBLUFF NE LGT RAIN  60  42  51 S18G32    29.69R
OMAHA NE       CLOUDY    52  46  80 NE18      29.73R
DES MOINES IA  CLOUDY    52  45  77 NE15G23   29.73R
DAVENPORT IA   CLOUDY    49  41  74 E20G28    29.74R
CHICAGO IL     CLOUDY    46  40  79 NE15      29.75R
EAU CLAIRE WI  SUNNY     60  19  20 NE10G20   29.84S
LA CROSSE WI   PTSUNNY   60  29  30 NE9       29.81F
$$

  *****  SOME NATIONAL WEATHER *****

CITY           SKY/WX    TMP DP  RH WIND       PRES   REMARKS
LA GUARDIA NY  PTSUNNY   59  22  24 W9        29.69F
RALEIGH NC     LGT RAIN  53  52  96 N5        29.72S VSB 1
ATLANTA GA     CLOUDY    78  66  66 W8        29.67F
NEW ORLEANS LA LGT RAIN  73  65  75 S13       29.73F
OKLAHOMA CITY  MOSUNNY   83  50  31 NW7       29.61F
ALBUQUERQUE NM PTSUNNY   68  23  18 SW13      29.80F
SALT LAKE CITY CLOUDY    57  38  48 W12       29.66F
LOS ANGELES CA LGT RAIN  60  58  92 W18       29.93F FOG
BOISE ID       PTSUNNY   58  24  27 NW12      29.76F
SEATTLE WA     PTSUNNY   55  32  41 NW7       30.00R
$$

*** WEATHER ACROSS MANITOBA...SASKATCHEWAN AND ONTARIO ***
                ***ONTARIO***

CITY           SKY/WX    TMP DP  RH WIND       PRES   REMARKS
GERALDTON      SUNNY     48  19  32 N8        30.01S
THUNDER BAY    SUNNY     48  18  29 SE8       30.01F
SIOUX LOOKOUT  MOSUNNY   54  19  26 E5        30.00F
TORONTO        MOSUNNY   52  28  40 NE7       29.80F
BIG TROUT LK   SUNNY     41  25  52 SE5       30.15S
PICKLE LAKE    MOSUNNY   46  10  23 NE7       30.06S
DRYDEN         SUNNY     54  23  30 NE9       29.99S
KENORA         SUNNY     55  30  38 E7        29.98S
$$
                *** MANITOBA***

CITY           SKY/WX    TMP DP  RH WIND       PRES   REMARKS
BRANDON        PTSUNNY   61  39  44 SE13G22   29.87S
DAUPHIN        CLOUDY    57  37  47 SE15G21   29.90F
ISLAND LAKE    MOSUNNY   54  19  26 SE8       30.08R
PILOT MOUND      N/A     59  37  44 SE16        N/A
THE PAS        CLOUDY    34  28  80 N8        30.07S
THOMPSON       FLURRIES  32  28  86 N7        30.13S
WINNIPEG       PTSUNNY   63  34  34 E8G20     29.91F
LYNN LAKE      SUNNY     41  12  30 N9        30.11S
CHURCHILL      CLOUDY    28  16  59 SE9       30.24S WCI  20
GILLAM         MOSUNNY   48  18  29 SE8       30.13S
$$
                ***SASKATCHEWAN***

CITY           SKY/WX    TMP DP  RH WIND       PRES   REMARKS
ESTEVAN        CLOUDY    54  39  58 SE20G25   29.78F
KINDERSLEY     LGT SNOW  32  28  86 NE16      29.90R WCI  21
LLOYDMINSTER   CLOUDY    37  16  41 NE16G22   29.96S
PRINCE ALBERT  LGT SNOW  32  30  93 NE10      30.01R VSB 3/4 WCI  24
REGINA         CLOUDY    46  43  87 SE20G30   29.78F
YORKTON        CLOUDY    46  36  66 NE15      29.87S
N. BATTLEFORD  LGT RAIN  36  32  87 E14       29.97R
LA RONGE       PTSUNNY   41  10  28 NE7       30.10S
SASKATOON      SNOW      30  30 100 NE17G25   29.92R VSB 1/2 WCI  18
SWIFT CURRENT  LGT RAIN  34  34 100 N12       29.80R FOG
$$
NOTE: THESE ARE AUTOMATED STATIONS WITH LIMITED QUALITY CONTROL
      "FAIR" INDICATES FEW OR NO CLOUDS BELOW 12,000 FEET WITH NO
      SIGNIFICANT WEATHER AND/OR OBSTRUCTIONS TO VISIBILITY.
      SKY/WX - SKY CONDITION AND SIGNIFICANT WEATHER.
      TMP - AIR TEMPERATURE.    DP   - DEWPOINT TEMPERATURE.
      RH  - RELATIVE HUMIDITY.  PRES - PRESSURE.
      HX  - HEAT INDEX.         WCI  - WIND CHILL INDEX.
$


USA.gov is the U.S. government's official web portal to all federal, state and local government web resources and services.